When you browse on this site, cookies collect data to enhance your experience and personalize the content and advertising you see.
Visit our Privacy Policy to learn more. By continuing to use the site, you agree to this use of cookies and data.
  • In Hungary
  • List of Countries
  • For 7 days
  • Water Temperature
  • Satellite Maps
  • Weather Map
  • News
  • Weather Widgets
  • user-avatar
    Login

    Hourly Weather Lepe

    Today, 21 January, Monday

    Time Temperature Precipitation Wind Pressure Humidity
    00:00 +7°C° 0 mm 6 mps 763 mmHg 81%
    01:00 +7°C° 0 mm 6 mps 763 mmHg 84%
    02:00 +7°C° 0 mm 6 mps 762 mmHg 86%
    03:00 +5°C° 0 mm 6 mps 762 mmHg 88%
    04:00 +6°C° 0 mm 5 mps 762 mmHg 89%
    05:00 +6°C° 0 mm 5 mps 763 mmHg 89%
    06:00 +5°C° 0 mm 5 mps 763 mmHg 89%
    07:00 +6°C° 0 mm 5 mps 763 mmHg 86%
    08:00 +6°C° 0 mm 5 mps 763 mmHg 83%
    09:00 +7°C° 0 mm 5 mps 763 mmHg 80%
    10:00 +8°C° 0 mm 5 mps 764 mmHg 72%
    11:00 +11°C° 0 mm 4 mps 764 mmHg 63%
    12:00 +13°C° 0 mm 4 mps 764 mmHg 54%
    13:00 +14°C° 0 mm 4 mps 764 mmHg 51%
    14:00 +15°C° 0 mm 4 mps 763 mmHg 48%
    15:00 +15°C° 0 mm 4 mps 763 mmHg 45%
    16:00 +14°C° 0 mm 4 mps 763 mmHg 50%
    17:00 +12°C° 0 mm 4 mps 763 mmHg 55%
    18:00 +11°C° 0 mm 4 mps 763 mmHg 60%
    19:00 +10°C° 0 mm 4 mps 764 mmHg 62%
    20:00 +8°C° 0 mm 4 mps 764 mmHg 65%
    21:00 +8°C° 0 mm 4 mps 764 mmHg 67%
    22:00 +7°C° 0 mm 4 mps 765 mmHg 68%
    23:00 +7°C° 0 mm 4 mps 765 mmHg 70%

    Tomorrow, 22 January, Tuesday

    Time Temperature Precipitation Wind Pressure Humidity
    00:00 +7°C° 0 mm 4 mps 765 mmHg 71%
    01:00 +6°C° 0 mm 4 mps 765 mmHg 73%
    02:00 +6°C° 0 mm 4 mps 765 mmHg 75%
    03:00 +5°C° 0 mm 4 mps 765 mmHg 77%
    04:00 +5°C° 0 mm 4 mps 764 mmHg 80%
    05:00 +5°C° 0 mm 4 mps 764 mmHg 83%
    06:00 +4°C° 0 mm 4 mps 764 mmHg 85%
    07:00 +5°C° 0 mm 5 mps 764 mmHg 85%
    08:00 +6°C° 0 mm 5 mps 765 mmHg 85%
    09:00 +7°C° 0 mm 6 mps 765 mmHg 84%
    10:00 +8°C° 0 mm 6 mps 765 mmHg 77%
    11:00 +10°C° 0 mm 6 mps 765 mmHg 70%
    12:00 +12°C° 0 mm 7 mps 765 mmHg 63%
    13:00 +12°C° 0 mm 7 mps 764 mmHg 63%
    14:00 +14°C° 0 mm 7 mps 763 mmHg 63%
    15:00 +15°C° 0 mm 7 mps 762 mmHg 63%
    16:00 +14°C° 0 mm 6 mps 762 mmHg 69%
    17:00 +13°C° 0 mm 6 mps 762 mmHg 75%
    18:00 +11°C° 0 mm 6 mps 762 mmHg 81%
    19:00 +10°C° 0 mm 7 mps 762 mmHg 80%
    20:00 +9°C° 0 mm 7 mps 762 mmHg 80%
    21:00 +7°C° 0 mm 8 mps 763 mmHg 79%
    22:00 +7°C° 0 mm 8 mps 763 mmHg 78%
    23:00 +6°C° 0 mm 9 mps 763 mmHg 77%

    Day after tomorrow, 23 January, Wednesday

    Time Temperature Precipitation Wind Pressure Humidity
    00:00 +6°C° 0 mm 9 mps 763 mmHg 76%
    01:00 +6°C° 0 mm 9 mps 763 mmHg 77%
    02:00 +6°C° 0 mm 9 mps 763 mmHg 78%
    03:00 +6°C° 0 mm 10 mps 763 mmHg 79%
    04:00 +6°C° 0 mm 9 mps 763 mmHg 81%
    05:00 +6°C° 0 mm 9 mps 763 mmHg 82%
    06:00 +5°C° 0 mm 9 mps 763 mmHg 84%
    07:00 +6°C° 0 mm 8 mps 763 mmHg 83%
    08:00 +6°C° 0 mm 8 mps 763 mmHg 82%
    09:00 +7°C° 0 mm 8 mps 763 mmHg 81%
    10:00 +10°C° 0 mm 8 mps 763 mmHg 75%
    11:00 +12°C° 0 mm 9 mps 763 mmHg 68%
    12:00 +13°C° 0 mm 9 mps 763 mmHg 61%
    13:00 +15°C° 0 mm 9 mps 762 mmHg 60%
    14:00 +15°C° 0 mm 9 mps 762 mmHg 59%
    15:00 +16°C° 0 mm 9 mps 761 mmHg 58%
    16:00 +15°C° 0 mm 8 mps 761 mmHg 61%
    17:00 +13°C° 0 mm 8 mps 761 mmHg 64%
    18:00 +12°C° 0 mm 8 mps 761 mmHg 67%
    19:00 +11°C° 0 mm 8 mps 761 mmHg 70%
    20:00 +10°C° 0 mm 8 mps 761 mmHg 74%
    21:00 +10°C° 0 mm 8 mps 761 mmHg 78%
    22:00 +10°C° 0 mm 8 mps 761 mmHg 80%
    23:00 +10°C° 0 mm 8 mps 761 mmHg 82%

    24 January, Thursday

    Time Temperature Precipitation Wind Pressure Humidity
    00:00 +10°C° 0 mm 8 mps 761 mmHg 84%
    01:00 +11°C° 0 mm 8 mps 760 mmHg 84%
    02:00 +11°C° 0 mm 8 mps 760 mmHg 83%
    03:00 +11°C° 0 mm 8 mps 759 mmHg 83%
    04:00 +11°C° 0 mm 8 mps 759 mmHg 83%
    05:00 +11°C° 0 mm 9 mps 759 mmHg 83%
    06:00 +11°C° 0 mm 9 mps 758 mmHg 83%
    07:00 +11°C° 0 mm 9 mps 758 mmHg 83%
    08:00 +11°C° 0 mm 9 mps 759 mmHg 83%
    09:00 +11°C° 0 mm 9 mps 759 mmHg 83%
    10:00 +13°C° 0 mm 9 mps 759 mmHg 77%
    11:00 +15°C° 0 mm 8 mps 758 mmHg 70%
    12:00 +17°C° 0 mm 7 mps 758 mmHg 64%
    13:00 +18°C° 0 mm 7 mps 758 mmHg 60%
    14:00 +18°C° 0 mm 7 mps 757 mmHg 55%
    15:00 +20°C° 0 mm 6 mps 757 mmHg 51%
    16:00 +17°C° 0 mm 6 mps 757 mmHg 53%
    17:00 +16°C° 0 mm 5 mps 757 mmHg 56%
    18:00 +14°C° 0 mm 5 mps 757 mmHg 59%
    19:00 +14°C° 0 mm 5 mps 758 mmHg 59%
    20:00 +13°C° 0 mm 5 mps 759 mmHg 59%
    21:00 +12°C° 0 mm 5 mps 760 mmHg 59%
    22:00 +10°C° 0 mm 6 mps 760 mmHg 56%
    23:00 +9°C° 0 mm 6 mps 761 mmHg 53%

    25 January, Friday

    Time Temperature Precipitation Wind Pressure Humidity
    00:00 +8°C° 0 mm 6 mps 761 mmHg 51%
    01:00 +8°C° 0 mm 6 mps 761 mmHg 50%
    02:00 +7°C° 0 mm 6 mps 761 mmHg 49%
    03:00 +5°C° 0 mm 6 mps 761 mmHg 49%
    04:00 +5°C° 0 mm 6 mps 762 mmHg 48%
    05:00 +5°C° 0 mm 5 mps 762 mmHg 48%
    06:00 +5°C° 0 mm 5 mps 762 mmHg 48%
    07:00 +5°C° 0 mm 5 mps 762 mmHg 46%
    08:00 +6°C° 0 mm 5 mps 763 mmHg 45%
    09:00 +6°C° 0 mm 5 mps 763 mmHg 43%
    10:00 +8°C° 0 mm 6 mps 764 mmHg 38%
    11:00 +10°C° 0 mm 6 mps 764 mmHg 33%
    12:00 +13°C° 0 mm 6 mps 764 mmHg 28%
    13:00 +14°C° 0 mm 5 mps 763 mmHg 29%
    14:00 +15°C° 0 mm 5 mps 763 mmHg 29%
    15:00 +17°C° 0 mm 4 mps 763 mmHg 29%
    16:00 +15°C° 0 mm 4 mps 763 mmHg 36%
    17:00 +13°C° 0 mm 3 mps 763 mmHg 42%
    18:00 +12°C° 0 mm 3 mps 763 mmHg 49%
    19:00 +11°C° 0 mm 3 mps 763 mmHg 52%
    20:00 +10°C° 0 mm 3 mps 764 mmHg 55%
    21:00 +9°C° 0 mm 3 mps 764 mmHg 57%
    22:00 +9°C° 0 mm 3 mps 764 mmHg 57%
    23:00 +9°C° 0 mm 3 mps 764 mmHg 57%

    26 January, Saturday

    Time Temperature Precipitation Wind Pressure Humidity
    00:00 +9°C° 0 mm 3 mps 764 mmHg 56%
    01:00 +8°C° 0 mm 3 mps 764 mmHg 56%
    02:00 +8°C° 0 mm 3 mps 764 mmHg 56%
    03:00 +8°C° 0 mm 3 mps 763 mmHg 56%
    04:00 +8°C° 0 mm 3 mps 763 mmHg 58%
    05:00 +8°C° 0 mm 3 mps 763 mmHg 59%
    06:00 +8°C° 0 mm 3 mps 763 mmHg 61%
    07:00 +8°C° 0 mm 3 mps 764 mmHg 61%
    08:00 +9°C° 0 mm 3 mps 764 mmHg 62%
    09:00 +10°C° 0 mm 3 mps 764 mmHg 62%
    10:00 +12°C° 0 mm 3 mps 764 mmHg 57%
    11:00 +14°C° 0 mm 3 mps 764 mmHg 52%
    12:00 +17°C° 0 mm 2 mps 764 mmHg 47%
    13:00 +17°C° 0 mm 3 mps 764 mmHg 47%
    14:00 +18°C° 0 mm 3 mps 763 mmHg 47%
    15:00 +18°C° 0 mm 4 mps 762 mmHg 47%
    16:00 +17°C° 0 mm 4 mps 762 mmHg 54%
    17:00 +14°C° 0 mm 4 mps 762 mmHg 62%
    18:00 +12°C° 0 mm 4 mps 762 mmHg 69%
    19:00 +12°C° 0 mm 5 mps 762 mmHg 72%
    20:00 +10°C° 0 mm 6 mps 763 mmHg 75%
    21:00 +9°C° 0 mm 7 mps 763 mmHg 78%
    22:00 +8°C° 0 mm 7 mps 763 mmHg 79%
    23:00 +7°C° 0 mm 8 mps 763 mmHg 81%
    Show more